When you browse on this site, cookies collect data to enhance your experience and personalize the content and advertising you see.
Visit our Privacy Policy to learn more. By continuing to use the site, you agree to this use of cookies and data.
  • în România
  • Lista ţărilor
  • Pe 7 zile
  • Temperatura apei
  • Meteo pe hartă
  • Widget-uri
  • user-avatar
    Intrare

    Meteo pe oră la Zarka

    Astăzi, 22 August, Joi

    Timp Temperatura Precipitaţii Vânt Presiune Umiditate
    00:00 +19°C° 0 mm 2 m/s 702 mmHg 67%
    01:00 +18°C° 0 mm 2 m/s 702 mmHg 69%
    02:00 +18°C° 0 mm 2 m/s 701 mmHg 70%
    03:00 +19°C° 0 mm 1 m/s 701 mmHg 72%
    04:00 +18°C° 0 mm 1 m/s 701 mmHg 74%
    05:00 +18°C° 0 mm 1 m/s 701 mmHg 75%
    06:00 +21°C° 0 mm 1 m/s 702 mmHg 64%
    07:00 +24°C° 0 mm 1 m/s 703 mmHg 52%
    08:00 +27°C° 0 mm 2 m/s 703 mmHg 40%
    09:00 +29°C° 0 mm 2 m/s 703 mmHg 33%
    10:00 +31°C° 0 mm 1 m/s 703 mmHg 26%
    11:00 +34°C° 0 mm 1 m/s 703 mmHg 19%
    12:00 +36°C° 0 mm 2 m/s 703 mmHg 17%
    13:00 +37°C° 0 mm 3 m/s 703 mmHg 16%
    14:00 +40°C° 0 mm 4 m/s 702 mmHg 14%
    15:00 +38°C° 0 mm 4 m/s 702 mmHg 18%
    16:00 +36°C° 0 mm 5 m/s 701 mmHg 22%
    17:00 +35°C° 0 mm 5 m/s 701 mmHg 26%
    18:00 +32°C° 0 mm 5 m/s 701 mmHg 35%
    19:00 +29°C° 0 mm 4 m/s 701 mmHg 43%
    20:00 +26°C° 0 mm 3 m/s 700 mmHg 52%
    21:00 +25°C° 0 mm 2 m/s 700 mmHg 55%
    22:00 +24°C° 0 mm 2 m/s 700 mmHg 57%
    23:00 +23°C° 0 mm 2 m/s 700 mmHg 60%

    Mâine, 23 August, Vineri

    Timp Temperatura Precipitaţii Vânt Presiune Umiditate
    00:00 +23°C° 0 mm 2 m/s 700 mmHg 57%
    01:00 +23°C° 0 mm 2 m/s 700 mmHg 54%
    02:00 +23°C° 0 mm 2 m/s 700 mmHg 51%
    03:00 +21°C° 0 mm 2 m/s 700 mmHg 57%
    04:00 +21°C° 0 mm 1 m/s 700 mmHg 63%
    05:00 +20°C° 0 mm 1 m/s 700 mmHg 69%
    06:00 +23°C° 0 mm 1 m/s 700 mmHg 57%
    07:00 +26°C° 0 mm 1 m/s 701 mmHg 44%
    08:00 +29°C° 0 mm 2 m/s 701 mmHg 32%
    09:00 +32°C° 0 mm 2 m/s 702 mmHg 26%
    10:00 +36°C° 0 mm 2 m/s 702 mmHg 20%
    11:00 +38°C° 0 mm 2 m/s 702 mmHg 14%
    12:00 +39°C° 0 mm 2 m/s 701 mmHg 14%
    13:00 +40°C° 0 mm 2 m/s 701 mmHg 13%
    14:00 +41°C° 0 mm 2 m/s 700 mmHg 12%
    15:00 +41°C° 0 mm 4 m/s 700 mmHg 17%
    16:00 +39°C° 0 mm 5 m/s 700 mmHg 23%
    17:00 +36°C° 0 mm 7 m/s 699 mmHg 28%
    18:00 +34°C° 0 mm 5 m/s 699 mmHg 35%
    19:00 +30°C° 0 mm 4 m/s 699 mmHg 43%
    20:00 +27°C° 0 mm 3 m/s 699 mmHg 50%
    21:00 +26°C° 0 mm 3 m/s 699 mmHg 52%
    22:00 +26°C° 0 mm 2 m/s 699 mmHg 53%
    23:00 +25°C° 0 mm 2 m/s 699 mmHg 55%

    Poimâine, 24 August, Sâmbătă

    Timp Temperatura Precipitaţii Vânt Presiune Umiditate
    00:00 +25°C° 0 mm 2 m/s 699 mmHg 57%
    01:00 +24°C° 0 mm 2 m/s 699 mmHg 58%
    02:00 +23°C° 0 mm 2 m/s 699 mmHg 60%
    03:00 +23°C° 0 mm 2 m/s 699 mmHg 65%
    04:00 +23°C° 0 mm 2 m/s 699 mmHg 69%
    05:00 +22°C° 0 mm 3 m/s 699 mmHg 73%
    06:00 +25°C° 0 mm 3 m/s 700 mmHg 66%
    07:00 +27°C° 0 mm 3 m/s 700 mmHg 58%
    08:00 +29°C° 0 mm 3 m/s 701 mmHg 50%
    09:00 +31°C° 0 mm 3 m/s 701 mmHg 43%
    10:00 +34°C° 0 mm 3 m/s 702 mmHg 35%
    11:00 +37°C° 0 mm 4 m/s 702 mmHg 28%
    12:00 +38°C° 0 mm 4 m/s 702 mmHg 25%
    13:00 +40°C° 0 mm 5 m/s 702 mmHg 23%
    14:00 +41°C° 0 mm 5 m/s 702 mmHg 21%
    15:00 +39°C° 0 mm 6 m/s 701 mmHg 27%
    16:00 +36°C° 0 mm 6 m/s 701 mmHg 32%
    17:00 +35°C° 0 mm 7 m/s 701 mmHg 38%
    18:00 +32°C° 0 mm 5 m/s 701 mmHg 46%
    19:00 +29°C° 0 mm 4 m/s 701 mmHg 53%
    20:00 +26°C° 0 mm 2 m/s 701 mmHg 60%
    21:00 +26°C° 0 mm 2 m/s 701 mmHg 59%
    22:00 +25°C° 0 mm 2 m/s 701 mmHg 59%
    23:00 +24°C° 0 mm 2 m/s 701 mmHg 58%

    25 August, Duminică

    Timp Temperatura Precipitaţii Vânt Presiune Umiditate
    00:00 +24°C° 0 mm 2 m/s 701 mmHg 58%
    01:00 +24°C° 0 mm 2 m/s 701 mmHg 58%
    02:00 +23°C° 0 mm 1 m/s 700 mmHg 58%
    03:00 +23°C° 0 mm 1 m/s 701 mmHg 58%
    04:00 +23°C° 0 mm 1 m/s 701 mmHg 59%
    05:00 +22°C° 0 mm 1 m/s 701 mmHg 59%
    06:00 +25°C° 0 mm 2 m/s 701 mmHg 51%
    07:00 +28°C° 0 mm 2 m/s 702 mmHg 42%
    08:00 +30°C° 0 mm 2 m/s 703 mmHg 34%
    09:00 +33°C° 0 mm 3 m/s 703 mmHg 30%
    10:00 +35°C° 0 mm 3 m/s 703 mmHg 26%
    11:00 +37°C° 0 mm 4 m/s 703 mmHg 22%
    12:00 +38°C° 0 mm 4 m/s 703 mmHg 21%
    13:00 +40°C° 0 mm 5 m/s 703 mmHg 20%
    14:00 +40°C° 0 mm 5 m/s 703 mmHg 19%
    15:00 +39°C° 0 mm 6 m/s 702 mmHg 22%
    16:00 +38°C° 0 mm 7 m/s 702 mmHg 25%
    17:00 +35°C° 0 mm 8 m/s 702 mmHg 29%
    18:00 +33°C° 0 mm 6 m/s 702 mmHg 34%
    19:00 +29°C° 0 mm 5 m/s 702 mmHg 39%
    20:00 +27°C° 0 mm 3 m/s 702 mmHg 44%
    21:00 +26°C° 0 mm 2 m/s 702 mmHg 44%
    22:00 +25°C° 0 mm 2 m/s 702 mmHg 44%
    23:00 +24°C° 0 mm 1 m/s 702 mmHg 43%

    26 August, Luni

    Timp Temperatura Precipitaţii Vânt Presiune Umiditate
    00:00 +24°C° 0 mm 1 m/s 701 mmHg 43%
    01:00 +23°C° 0 mm 1 m/s 701 mmHg 42%
    02:00 +23°C° 0 mm 1 m/s 701 mmHg 42%
    03:00 +23°C° 0 mm 1 m/s 701 mmHg 41%
    04:00 +23°C° 0 mm 1 m/s 701 mmHg 40%
    05:00 +23°C° 0 mm 2 m/s 701 mmHg 39%
    06:00 +26°C° 0 mm 2 m/s 702 mmHg 33%
    07:00 +28°C° 0 mm 2 m/s 703 mmHg 28%
    08:00 +31°C° 0 mm 2 m/s 703 mmHg 23%
    09:00 +34°C° 0 mm 2 m/s 703 mmHg 21%
    10:00 +35°C° 0 mm 3 m/s 704 mmHg 19%
    11:00 +37°C° 0 mm 4 m/s 704 mmHg 18%
    12:00 +38°C° 0 mm 4 m/s 703 mmHg 17%
    13:00 +40°C° 0 mm 5 m/s 703 mmHg 17%
    14:00 +40°C° 0 mm 5 m/s 703 mmHg 17%
    15:00 +39°C° 0 mm 5 m/s 702 mmHg 20%
    16:00 +38°C° 0 mm 6 m/s 702 mmHg 23%
    17:00 +36°C° 0 mm 6 m/s 702 mmHg 26%
    18:00 +33°C° 0 mm 5 m/s 702 mmHg 33%
    19:00 +29°C° 0 mm 4 m/s 702 mmHg 39%
    20:00 +26°C° 0 mm 3 m/s 702 mmHg 46%
    21:00 +25°C° 0 mm 2 m/s 702 mmHg 45%
    22:00 +24°C° 0 mm 2 m/s 702 mmHg 44%
    23:00 +24°C° 0 mm 1 m/s 702 mmHg 43%

    27 August, Marţi

    Timp Temperatura Precipitaţii Vânt Presiune Umiditate
    00:00 +24°C° 0 mm 1 m/s 702 mmHg 40%
    01:00 +24°C° 0 mm 2 m/s 702 mmHg 37%
    02:00 +24°C° 0 mm 2 m/s 702 mmHg 34%
    03:00 +24°C° 0 mm 2 m/s 701 mmHg 35%
    04:00 +23°C° 0 mm 2 m/s 701 mmHg 36%
    05:00 +21°C° 0 mm 2 m/s 701 mmHg 36%
    06:00 +25°C° 0 mm 2 m/s 702 mmHg 32%
    07:00 +27°C° 0 mm 2 m/s 702 mmHg 28%
    08:00 +29°C° 0 mm 2 m/s 703 mmHg 24%
    09:00 +31°C° 0 mm 2 m/s 703 mmHg 22%
    10:00 +35°C° 0 mm 2 m/s 703 mmHg 20%
    11:00 +37°C° 0 mm 3 m/s 703 mmHg 18%
    12:00 +37°C° 0 mm 3 m/s 703 mmHg 17%
    13:00 +38°C° 0 mm 4 m/s 702 mmHg 17%
    14:00 +40°C° 0 mm 5 m/s 702 mmHg 17%
    15:00 +39°C° 0 mm 6 m/s 702 mmHg 22%
    16:00 +36°C° 0 mm 6 m/s 702 mmHg 28%
    17:00 +34°C° 0 mm 7 m/s 701 mmHg 33%
    18:00 +32°C° 0 mm 6 m/s 701 mmHg 39%
    19:00 +29°C° 0 mm 4 m/s 701 mmHg 44%
    20:00 +26°C° 0 mm 3 m/s 701 mmHg 49%
    21:00 +26°C° 0 mm 3 m/s 701 mmHg 45%
    22:00 +25°C° 0 mm 3 m/s 701 mmHg 41%
    23:00 +25°C° 0 mm 3 m/s 701 mmHg 37%
    Arată mai mult